Hourly Weather Baruta

Today, 8 March, Monday

Time Temperature Precipitation Wind Pressure Humidity
00:00 -8°C° 0 mm 3 mps 742 mmHg 92%
01:00 -9°C° 0 mm 3 mps 743 mmHg 91%
02:00 -10°C° 0 mm 3 mps 743 mmHg 90%
03:00 -10°C° 0 mm 3 mps 744 mmHg 91%
04:00 -10°C° 0 mm 3 mps 744 mmHg 91%
05:00 -12°C° 0 mm 3 mps 745 mmHg 92%
06:00 -12°C° 0 mm 3 mps 745 mmHg 91%
07:00 -11°C° 0 mm 4 mps 746 mmHg 89%
08:00 -11°C° 0 mm 4 mps 747 mmHg 87%
09:00 -11°C° 0 mm 4 mps 748 mmHg 84%
10:00 -10°C° 0 mm 4 mps 749 mmHg 82%
11:00 -10°C° 0 mm 4 mps 749 mmHg 79%
12:00 -9°C° 0 mm 4 mps 750 mmHg 78%
13:00 -9°C° 0 mm 4 mps 750 mmHg 77%
14:00 -9°C° 0 mm 4 mps 751 mmHg 76%
15:00 -9°C° 0 mm 4 mps 751 mmHg 78%
16:00 -8°C° 0 mm 3 mps 752 mmHg 79%
17:00 -8°C° 0 mm 3 mps 752 mmHg 80%
18:00 -9°C° 0 mm 3 mps 753 mmHg 84%
19:00 -9°C° 0 mm 2 mps 753 mmHg 87%
20:00 -10°C° 0 mm 2 mps 754 mmHg 91%
21:00 -10°C° 0 mm 2 mps 754 mmHg 92%
22:00 -12°C° 0 mm 2 mps 754 mmHg 94%
23:00 -12°C° 0 mm 2 mps 754 mmHg 95%

Tomorrow, 9 March, Tuesday

Time Temperature Precipitation Wind Pressure Humidity
00:00 -13°C° 0 mm 2 mps 755 mmHg 95%
01:00 -13°C° 0 mm 2 mps 755 mmHg 96%
02:00 -14°C° 0 mm 2 mps 756 mmHg 96%
03:00 -14°C° 0 mm 2 mps 756 mmHg 96%
04:00 -14°C° 0 mm 2 mps 756 mmHg 96%
05:00 -15°C° 0 mm 2 mps 756 mmHg 96%
06:00 -12°C° 0 mm 1 mps 757 mmHg 94%
07:00 -12°C° 0 mm 1 mps 757 mmHg 93%
08:00 -12°C° 0 mm 1 mps 758 mmHg 92%
09:00 -11°C° 0 mm 1 mps 758 mmHg 85%
10:00 -9°C° 0 mm 1 mps 758 mmHg 79%
11:00 -9°C° 0 mm 2 mps 758 mmHg 72%
12:00 -7°C° 0 mm 1 mps 758 mmHg 69%
13:00 -6°C° 0 mm 1 mps 758 mmHg 66%
14:00 -6°C° 0 mm 1 mps 758 mmHg 62%
15:00 -6°C° 0 mm 1 mps 758 mmHg 66%
16:00 -6°C° 0 mm 0 mps 758 mmHg 70%
17:00 -7°C° 0 mm 0 mps 758 mmHg 73%
18:00 -7°C° 0.2 mm 1 mps 758 mmHg 80%
19:00 -9°C° 0.2 mm 2 mps 759 mmHg 86%
20:00 -9°C° 0.2 mm 2 mps 759 mmHg 93%
21:00 -10°C° 0.6 mm 3 mps 759 mmHg 93%
22:00 -10°C° 0.6 mm 3 mps 759 mmHg 93%
23:00 -12°C° 0.6 mm 3 mps 759 mmHg 93%

Day after tomorrow, 10 March, Wednesday

Time Temperature Precipitation Wind Pressure Humidity
00:00 -12°C° 0.7 mm 3 mps 759 mmHg 93%
01:00 -12°C° 0.7 mm 4 mps 759 mmHg 93%
02:00 -14°C° 0.7 mm 4 mps 760 mmHg 93%
03:00 -14°C° 0.4 mm 4 mps 760 mmHg 93%
04:00 -14°C° 0.4 mm 4 mps 760 mmHg 93%
05:00 -15°C° 0.4 mm 4 mps 760 mmHg 92%
06:00 -15°C° 0.1 mm 4 mps 760 mmHg 92%
07:00 -15°C° 0.1 mm 4 mps 761 mmHg 91%
08:00 -15°C° 0.1 mm 4 mps 761 mmHg 90%
09:00 -15°C° 0 mm 4 mps 762 mmHg 87%
10:00 -14°C° 0 mm 4 mps 762 mmHg 84%
11:00 -12°C° 0 mm 4 mps 762 mmHg 81%
12:00 -12°C° 0 mm 4 mps 762 mmHg 78%
13:00 -11°C° 0 mm 4 mps 763 mmHg 75%
14:00 -10°C° 0 mm 4 mps 763 mmHg 73%
15:00 -11°C° 0 mm 4 mps 763 mmHg 74%
16:00 -10°C° 0 mm 3 mps 763 mmHg 76%
17:00 -10°C° 0 mm 3 mps 763 mmHg 77%
18:00 -12°C° 0 mm 3 mps 763 mmHg 79%
19:00 -14°C° 0 mm 4 mps 763 mmHg 81%
20:00 -15°C° 0 mm 4 mps 764 mmHg 83%
21:00 -15°C° 0.1 mm 4 mps 764 mmHg 84%
22:00 -15°C° 0.1 mm 4 mps 764 mmHg 85%
23:00 -16°C° 0.1 mm 4 mps 764 mmHg 87%

11 March, Thursday

Time Temperature Precipitation Wind Pressure Humidity
00:00 -16°C° 0 mm 4 mps 764 mmHg 87%
01:00 -16°C° 0 mm 4 mps 764 mmHg 88%
02:00 -16°C° 0 mm 3 mps 764 mmHg 89%
03:00 -16°C° 0 mm 3 mps 764 mmHg 90%
04:00 -16°C° 0 mm 3 mps 764 mmHg 91%
05:00 -16°C° 0 mm 3 mps 764 mmHg 92%
06:00 -16°C° 0 mm 3 mps 764 mmHg 91%
07:00 -15°C° 0 mm 3 mps 764 mmHg 91%
08:00 -15°C° 0 mm 3 mps 764 mmHg 91%
09:00 -14°C° 0 mm 3 mps 763 mmHg 89%
10:00 -12°C° 0 mm 3 mps 763 mmHg 87%
11:00 -9°C° 0 mm 3 mps 763 mmHg 85%
12:00 -8°C° 0 mm 3 mps 763 mmHg 83%
13:00 -7°C° 0 mm 3 mps 762 mmHg 81%
14:00 -6°C° 0 mm 3 mps 762 mmHg 79%
15:00 -6°C° 0 mm 3 mps 761 mmHg 81%
16:00 -6°C° 0 mm 3 mps 761 mmHg 82%
17:00 -7°C° 0 mm 3 mps 760 mmHg 83%
18:00 -7°C° 0 mm 3 mps 760 mmHg 86%
19:00 -9°C° 0 mm 4 mps 760 mmHg 88%
20:00 -10°C° 0 mm 4 mps 760 mmHg 91%
21:00 -11°C° 0 mm 4 mps 760 mmHg 91%
22:00 -11°C° 0 mm 4 mps 760 mmHg 91%
23:00 -11°C° 0 mm 4 mps 759 mmHg 91%

12 March, Friday

Time Temperature Precipitation Wind Pressure Humidity
00:00 -11°C° 0 mm 4 mps 759 mmHg 90%
01:00 -11°C° 0 mm 4 mps 758 mmHg 89%
02:00 -12°C° 0 mm 5 mps 758 mmHg 89%
03:00 -12°C° 0 mm 5 mps 757 mmHg 88%
04:00 -12°C° 0 mm 5 mps 756 mmHg 87%
05:00 -12°C° 0 mm 5 mps 756 mmHg 87%
06:00 -12°C° 0 mm 6 mps 755 mmHg 85%
07:00 -12°C° 0 mm 6 mps 755 mmHg 82%
08:00 -11°C° 0 mm 6 mps 754 mmHg 80%
09:00 -10°C° 0 mm 6 mps 754 mmHg 78%
10:00 -9°C° 0 mm 6 mps 753 mmHg 76%
11:00 -7°C° 0 mm 7 mps 753 mmHg 74%
12:00 -7°C° 0 mm 7 mps 752 mmHg 76%
13:00 -7°C° 0 mm 7 mps 752 mmHg 79%
14:00 -6°C° 0 mm 7 mps 751 mmHg 81%
15:00 -6°C° 0.2 mm 7 mps 751 mmHg 84%
16:00 -7°C° 0.2 mm 7 mps 750 mmHg 87%
17:00 -6°C° 0.2 mm 6 mps 750 mmHg 89%
18:00 -6°C° 0.3 mm 6 mps 749 mmHg 90%
19:00 -6°C° 0.3 mm 6 mps 749 mmHg 91%
20:00 -6°C° 0.3 mm 6 mps 749 mmHg 91%
21:00 -6°C° 0.3 mm 5 mps 748 mmHg 92%
22:00 -6°C° 0.3 mm 5 mps 748 mmHg 93%
23:00 -6°C° 0.3 mm 5 mps 748 mmHg 93%

13 March, Saturday

Time Temperature Precipitation Wind Pressure Humidity
00:00 -4°C° 0.5 mm 4 mps 747 mmHg 94%
01:00 -4°C° 0.5 mm 4 mps 747 mmHg 95%
02:00 -4°C° 0.5 mm 3 mps 747 mmHg 96%
03:00 -2°C° 0.4 mm 3 mps 747 mmHg 97%
04:00 -1°C° 0.4 mm 3 mps 748 mmHg 97%
05:00 0°C° 0.4 mm 3 mps 748 mmHg 97%
06:00 0°C° 0 mm 3 mps 748 mmHg 96%
07:00 0°C° 0 mm 3 mps 749 mmHg 94%
08:00 0°C° 0 mm 3 mps 749 mmHg 93%
09:00 0°C° 0 mm 4 mps 749 mmHg 93%
10:00 0°C° 0 mm 4 mps 749 mmHg 93%
11:00 +1°C° 0 mm 4 mps 749 mmHg 94%
12:00 +1°C° 0 mm 5 mps 749 mmHg 91%
13:00 +2°C° 0 mm 5 mps 749 mmHg 88%
14:00 +2°C° 0 mm 5 mps 748 mmHg 86%
15:00 +2°C° 0 mm 5 mps 748 mmHg 86%
16:00 +2°C° 0 mm 5 mps 748 mmHg 86%
17:00 +1°C° 0 mm 4 mps 747 mmHg 86%
18:00 +1°C° 0.4 mm 4 mps 747 mmHg 89%
19:00 0°C° 0.4 mm 4 mps 747 mmHg 92%
20:00 0°C° 0.4 mm 4 mps 747 mmHg 95%
21:00 0°C° 0 mm 3 mps 747 mmHg 95%
22:00 0°C° 0 mm 3 mps 748 mmHg 95%
23:00 0°C° 0 mm 3 mps 748 mmHg 94%
Show more